Regional Weather Roundup
Issued by NWS Mobile, AL

Home | Current Version | Previous Version | Text Only | Print | Product List | Glossary On
Versions: 1 2 3 4 5 6 7 8 9 10 11 12 13 14 15 16 17 18 19 20 21 22 23 24 25 26 27 28 29 30 31 32 33 34 35 36 37 38 39 40 41 42 43 44 45 46 47 48 49 50
000
ASUS44 KMOB 030716
RWRMOB
REGIONAL WEATHER ROUNDUP
NATIONAL WEATHER SERVICE MOBILE AL
200 AM CDT WED JUN 03 2015

ALZ061>064-030800-
COASTAL ALABAMA


CITY           SKY/WX    TMP DP  RH WIND       PRES   REMARKS
MOBILE REG APT CLOUDY    72  69  90 SE7       29.95F
BROOKLEY FIELD LGT RAIN  72  70  93 CALM      29.95F
GULF SHORES    PTSUNNY   71  70  98 CALM      29.93S

$$

ALZ051>060-030800-
INTERIOR SOUTHWEST AND SOUTH CENTRAL ALABAMA


CITY           SKY/WX    TMP DP  RH WIND       PRES   REMARKS
ANDALUSIA/OPP  CLOUDY    74  69  85 NW3       29.94F
EVERGREEN      PTCLDY    68  67  96 CALM      29.95F
FLORALA        PTSUNNY   68  66  94 CALM      29.96S
GREENVILLE     FAIR      67  64  90 CALM      29.95F

$$

FLZ001>006-030800-
WESTERN FLORIDA PANHANDLE


CITY           SKY/WX    TMP DP  RH WIND       PRES   REMARKS
CRESTVIEW      PTCLDY    68  67  96 CALM      29.95F
DESTIN         CLOUDY    74  69  85 E12       29.93F
DUKE FIELD     FAIR      69  67  96 N2        29.93F
MARY ESTHER    PTCLDY    70  67  88 CALM      29.91F
MILTON         PTSUNNY   72  69  90 NE6       29.94F
PENSACOLA      CLEAR     71  71 100 NE5       29.93F
NAS PENSACOLA  CLEAR     72  71  97 CALM      29.92F
VALPARAISO     TSTM      72  70  94 CALM      29.93F

$$

...MARINE OBSERVATIONS...

STATION/POSITION TIME  SKY/WX   TEMP    WIND        PRES    VSBY
                                AIR SEA DIR/SP/G
                 (UTC)          (F)     (DEG/KT/KT) (MB)    (MI)
PASCAGOULA       0600            75                 1013.5F
PETIT BOIS ISL   0600            80                 1013.9F
E DAUPHIN ISLAND 0700            77     350/ 12/ 13 1013.1F
MIDDLE BAY LIGHT 0600            76      10/  6     1012.9F
USCG MOBILE BAY  0600            72 81              1013.0F
STATE DOCKS      0600            74 79              1014.0R
MEAHER PARK      0700            74     340/  3     1013.5S
FORT MORGAN      0600            79                 1013.3F
12 S ORANGE BCH  0650            79 81  290/  2/  2 1012.7F
WVE H/P(F/S)=  1

PENSACOLA BAY    0600            75 83              1014.1S
64 S DAUPHIN ISL 0650            80 82  250/  4/  4 1013.4F
WVE H/P(F/S)=  1

67 S FORT MORGAN 0630            79     260/  4     1013.2F
115 SE PENSACOLA 0650            78 81  170/  6/  8 1014.1F
WVE H/P(F/S)=  1/ 4

MID GULF/42001   0650            80 82   80/  2/  4 1013.9F
WVE H/P(F/S)=  1/ 4

EAST GULF/42003  0650            79 81  110/  8/ 10 1013.1F
WVE H/P(F/S)=  2/ 5


$$

...NEARBY LOCATIONS

CITY           SKY/WX    TMP DP  RH WIND       PRES   REMARKS
GULFPORT       MOCLDY    73  70  90 W3        29.92F
BILOXI         CLOUDY    75  72  88 N3        29.92F
PASCAGOULA     CLOUDY    73  71  93 NE3       29.93F
HATTIESBURG    CLEAR     70  66  87 CALM      29.97S
LAUREL         CLEAR     66  61  82 N5        29.98S
MERIDIAN       CLEAR     63  61  93 NW3       29.97F
MERIDIAN NAS   CLEAR     65  61  87 N6        29.97F
MONTGOMERY     CLEAR     69  64  84 CALM      29.95F
MAXWELL AFB    PTCLDY    69  65  87 N3        29.94F
TROY           PTCLDY    69  67  93 CALM      29.96S
FORT RUCKER      N/A     71  68  90 CALM      29.93F
DALEVILLE      CLOUDY    71  69  96 S3        29.94F
DOTHAN         PTCLDY    71  69  93 SW5       29.98F

$$

...OTHER SURROUNDING LOCATIONS...

CITY           SKY/WX    TMP DP  RH WIND       PRES   REMARKS
BIRMINGHAM     MOCLDY    64  62  93 CALM      29.99F
TUSCALOOSA     CLEAR     65  62  90 N3        29.97F
COLUMBUS GA    MOCLDY    71  65  81 NW3       29.94F
PANAMA CITY    NOT AVBL
TALLAHASSEE    PTCLDY    71  68  90 CALM      29.95S
BATON ROUGE    CLEAR     71  65  81 NE6       29.94F
NEW ORLEANS    PTCLDY    78  68  71 NE7       29.92F
SLIDELL        CLOUDY    73  69  87 CALM      29.93F
JACKSON        CLEAR     65  61  87 NE6       29.98F
MCCOMB         CLEAR     69  63  81 NE6       29.96F

$$

...SURROUNDING MARINE OBSERVATIONS...

STATION/POSITION TIME  SKY/WX   TEMP    WIND        PRES    VSBY
                                AIR SEA DIR/SP/G
                 (UTC)          (F)     (DEG/KT/KT) (MB)    (MI)
WAVELAND         0600            73 83              1014.2R
PASCAGOULA RGN A 0600            75                 1013.2F
PASCAGOULA PORT  0600               82                N/A
GRAND ISLE       0600            81 87              1013.5F
SOUTHWEST PASS   0700            78     240/ 10/ 10 1013.5F
PILOT STATION E  0600            78 75              1014.1F
SHELL BEACH      0600            80 86              1012.9S
PANAMA CITY      0600            78 83              1013.7F
APALACHICOLA     0600            78 80              1014.3F
TYNDALL TOWER C  0700            78     180/ 10/ 11 1013.9F
S APLCHCLA/42036 0650            78 81  160/ 10/ 12 1013.9F
WVE H/P(F/S)=  2/ 4


$$



USA.gov is the U.S. government's official web portal to all federal, state and local government web resources and services.